Weather History for KCLE - July, 2013

Change the Weather History Date:

Sunday, July 7, 2013

  Actual Average Record
Temperature  
Mean Temperature 75 °F 73 °F  
Max Temperature 81 °F 83 °F 99 °F (1988)
Min Temperature 69 °F 64 °F 45 °F (1968)
Degree Days  
Heating Degree Days 0 0  
Month to date heating degree days 0 0  
Since 1 June heating degree days 39 42  
Since 1 July heating degree days 0 0  
Cooling Degree Days 10 9  
Month to date cooling degree days 65 58  
Year to date cooling degree days 343 285  
Since 1 June cooling degree days 229 226  
Growing Degree Days 25 (Base 50)    
Moisture  
Dew Point 65 °F    
Average Humidity 74    
Maximum Humidity 90    
Minimum Humidity 58    
Precipitation  
Precipitation 0.01 in 0.11 in 1.65 in (2003)
Month to date precipitation 0.59 0.77  
Year to date precipitation 21.08 19.34  
Snow  
Snow 0.00 in 0.00 in - ()
Month to date snowfall 0.0 0.0  
Since 1 June snowfall 0.0 0.0  
Since 1 July snowfall 0.0 0.0  
Snow Depth 0.00 in    
Sea Level Pressure  
Sea Level Pressure 30.06 in    
Wind  
Wind Speed 9 mph (SW)    
Max Wind Speed 17 mph    
Max Gust Speed 20 mph    
Visibility 10 miles    
Events Rain , Thunderstorm    
T = Trace of Precipitation, MM = Missing Value Source: NWS Daily Summary

Daily Weather History Graph

Daily Weather History Graph

Search for Another Location

Airport or City:

Trip Planner

Search our weather history database for the weather conditions in past years. The results will help you decide how hot, cold, wet, or windy it might be!

Date:

Astronomy

Jul. 07, 2013 Rise Set
Actual Time 6:01 AM EDT 9:03 PM EDT
Civil Twilight 5:27 AM EDT 9:36 PM EDT
Nautical Twilight 4:45 AM EDT 10:19 PM EDT
Astronomical Twilight 3:55 AM EDT 11:08 PM EDT
Moon 5:37 AM EDT (7/7) 8:25 PM EDT (7/7)
Length of Visible Light 16h 08m
Length of Day
15h 01m
Waning Crescent, 0% of the Moon is Illuminated
Jul 7
Waning Crescent
Jul 8
New
Jul 15
First Quarter
Jul 22
Full
Jul 29
Last Quarter

Hourly Weather History & Observations

Time (EDT) Temp. Heat Index Dew Point Humidity Pressure Visibility Wind Dir Wind Speed Gust Speed Precip Events Conditions
12:51 AM 73.0 °F - 68.0 °F 84% 30.07 in 10.0 mi SSW 10.4 mph - N/A   Overcast
1:51 AM 72.0 °F - 66.9 °F 84% 30.07 in 10.0 mi South 9.2 mph - N/A   Scattered Clouds
2:51 AM 72.0 °F - 66.9 °F 84% 30.05 in 10.0 mi SSW 8.1 mph - N/A   Overcast
3:51 AM 70.0 °F - 66.0 °F 87% 30.06 in 10.0 mi SSW 6.9 mph - N/A   Scattered Clouds
4:19 AM 70.0 °F - 66.0 °F 87% 30.07 in 10.0 mi SSW 6.9 mph - N/A   Mostly Cloudy
4:51 AM 70.0 °F - 66.0 °F 87% 30.06 in 10.0 mi SW 8.1 mph - N/A   Overcast
5:15 AM 70.0 °F - 66.0 °F 87% 30.08 in 10.0 mi SSW 8.1 mph - N/A   Overcast
5:51 AM 69.1 °F - 64.9 °F 87% 30.07 in 10.0 mi SSW 6.9 mph - N/A   Mostly Cloudy
5:58 AM 69.1 °F - 64.9 °F 87% 30.08 in 10.0 mi SSW 9.2 mph - N/A   Mostly Cloudy
6:51 AM 69.1 °F - 66.0 °F 90% 30.07 in 10.0 mi SSW 5.8 mph - N/A   Mostly Cloudy
7:51 AM 70.0 °F - 64.9 °F 84% 30.08 in 10.0 mi SSW 8.1 mph - N/A   Mostly Cloudy
8:09 AM 70.0 °F - 66.0 °F 87% 30.10 in 10.0 mi SSW 8.1 mph - N/A   Mostly Cloudy
8:51 AM 71.1 °F - 66.0 °F 84% 30.09 in 10.0 mi SW 8.1 mph - N/A   Mostly Cloudy
9:51 AM 73.9 °F - 64.9 °F 73% 30.10 in 10.0 mi SW 10.4 mph - N/A   Overcast
10:51 AM 75.0 °F - 66.0 °F 73% 30.09 in 10.0 mi SW 10.4 mph - N/A   Overcast
11:38 AM 75.9 °F - 66.0 °F 71% 30.11 in 10.0 mi SSW 12.7 mph - N/A   Overcast
11:51 AM 75.0 °F - 64.9 °F 71% 30.09 in 10.0 mi SSW 12.7 mph - N/A   Overcast
12:51 PM 78.1 °F - 66.0 °F 66% 30.08 in 10.0 mi SW 6.9 mph - N/A   Overcast
1:51 PM 77.0 °F - 66.0 °F 69% 30.07 in 10.0 mi WSW 12.7 mph - N/A   Overcast
2:51 PM 79.0 °F - 64.9 °F 62% 30.06 in 10.0 mi WSW 12.7 mph - N/A   Overcast
3:51 PM 79.0 °F - 66.0 °F 64% 30.04 in 10.0 mi WSW 9.2 mph - N/A   Overcast
4:51 PM 79.0 °F - 64.9 °F 62% 30.02 in 10.0 mi WSW 13.8 mph - N/A   Overcast
5:51 PM 81.0 °F 82.5 °F 64.0 °F 56% 30.01 in 10.0 mi West 11.5 mph - N/A   Mostly Cloudy
6:51 PM 79.0 °F - 63.0 °F 58% 30.01 in 10.0 mi SW 13.8 mph - N/A   Scattered Clouds
7:51 PM 77.0 °F - 63.0 °F 62% 30.01 in 10.0 mi SW 8.1 mph - N/A   Scattered Clouds
8:51 PM 75.9 °F - 63.0 °F 64% 30.04 in 10.0 mi West 6.9 mph - 0.00 in   Mostly Cloudy
9:22 PM 75.0 °F - 64.0 °F 69% 30.06 in 10.0 mi West 12.7 mph 19.6 mph N/A Thunderstorm Thunderstorm
9:51 PM 71.1 °F - 66.0 °F 84% 30.06 in 9.0 mi SSW 6.9 mph - 0.00 in Rain , Thunderstorm Light Thunderstorms and Rain
10:10 PM 71.1 °F - 66.0 °F 84% 30.07 in 10.0 mi SW 6.9 mph - 0.01 in   Mostly Cloudy
10:51 PM 71.1 °F - 64.9 °F 81% 30.06 in 10.0 mi SW 6.9 mph - 0.01 in   Mostly Cloudy
11:51 PM 70.0 °F - 64.0 °F 81% 30.07 in 10.0 mi SW 6.9 mph - N/A   Overcast